Location: Hamburg
(53.5500°N, 10.0000°E)
Time: 08:03:08
(UTC+01:00)

A-11 Canister half - All Passes

Search period start: 31 January 2015 00:00
Search period end: 10 February 2015 00:00
Orbit: 1526 x 1683 km, 47.3° (Epoch: 27 January)

Date Brightness Start Highest point End Pass type
(mag) Time Alt. Az. Time Alt. Az. Time Alt. Az.
31 Jan - 05:31:21 10° SE 05:33:04 11° SE 05:35:23 10° ESE visible
31 Jan - 07:27:54 10° SSW 07:35:50 34° SE 07:44:00 10° E visible
31 Jan - 09:30:36 10° WSW 09:39:36 57° SSE 09:48:51 10° E daylight
31 Jan - 11:34:46 10° W 11:43:52 57° SSW 11:53:13 10° ESE daylight
31 Jan - 13:39:29 10° W 13:47:42 34° SW 13:56:03 10° SSE daylight
31 Jan - 15:47:43 10° WSW 15:50:36 11° SW 15:52:54 10° SW daylight
01 Feb - 07:06:32 10° SSW 07:14:22 33° SE 07:22:25 10° E visible
01 Feb - 09:09:07 10° WSW 09:18:07 56° SSE 09:27:18 10° E daylight
01 Feb - 11:13:16 10° W 11:22:22 57° S 11:31:42 10° ESE daylight
01 Feb - 13:17:56 10° W 13:26:14 35° SSW 13:34:38 10° SSE daylight
01 Feb - 15:25:38 10° WSW 15:29:10 12° SW 15:32:10 10° SW daylight
02 Feb - 06:45:10 10° SSW 06:52:54 32° SE 07:00:51 10° E visible
02 Feb - 08:47:38 10° WSW 08:56:37 55° SSE 09:05:46 10° E daylight
02 Feb - 10:51:45 10° W 11:00:51 58° S 11:10:10 10° ESE daylight
02 Feb - 12:56:24 10° W 13:04:45 36° SSW 13:13:13 10° SSE daylight
02 Feb - 15:03:41 10° WSW 15:07:43 13° SW 15:11:17 10° SSW daylight
03 Feb - 06:23:50 10° SSW 06:31:27 30° SE 06:39:16 10° E visible
03 Feb - 08:26:10 10° WSW 08:35:06 55° SSE 08:44:13 10° E daylight
03 Feb - 10:30:15 10° W 10:39:20 58° S 10:48:38 10° ESE daylight
03 Feb - 12:34:52 10° W 12:43:16 37° SSW 12:51:48 10° SSE daylight
03 Feb - 14:41:48 10° W 14:46:17 14° SW 14:50:18 10° SSW daylight
04 Feb - 06:02:29 10° SSW 06:10:00 29° SE 06:17:42 10° E visible
04 Feb - 08:04:42 10° WSW 08:13:36 54° SSE 08:22:41 10° E daylight
04 Feb - 10:08:45 10° W 10:17:50 59° S 10:27:07 10° ESE daylight
04 Feb - 12:13:20 10° W 12:21:47 38° SSW 12:30:21 10° SSE daylight
04 Feb - 14:19:59 10° W 14:24:50 15° SW 14:29:16 10° SSW daylight
05 Feb - 05:41:09 10° SSW 05:48:32 28° SE 05:56:07 10° E visible
05 Feb - 07:43:14 10° SW 07:52:07 53° SSE 08:01:09 10° E daylight
05 Feb - 09:47:14 10° W 09:56:19 59° S 10:05:36 10° ESE daylight
05 Feb - 11:51:48 10° W 12:00:18 39° SSW 12:08:55 10° SE daylight
05 Feb - 13:58:14 10° W 14:03:23 15° SW 14:08:11 10° SSW daylight
06 Feb - 05:19:50 10° SSW 05:27:05 27° SE 05:34:32 10° E visible
06 Feb - 07:21:45 10° SW 07:30:37 52° SSE 07:39:36 10° E visible
06 Feb - 09:25:44 10° W 09:34:49 60° S 09:44:04 10° ESE daylight
06 Feb - 11:30:17 10° W 11:38:49 41° SSW 11:47:28 10° SE daylight
06 Feb - 13:36:30 10° W 13:41:56 16° SW 13:47:04 10° SSW daylight
07 Feb - 04:58:31 10° S 05:05:38 26° SE 05:12:56 10° E visible
07 Feb - 07:00:18 10° SW 07:09:07 51° SSE 07:18:04 10° E visible
07 Feb - 09:04:14 10° W 09:13:18 60° S 09:22:33 10° ESE daylight
07 Feb - 11:08:45 10° W 11:17:20 42° SSW 11:26:02 10° SE daylight
07 Feb - 13:14:47 10° W 13:20:30 17° SW 13:25:54 10° SSW daylight
08 Feb - 04:37:14 10° S 04:44:11 25° SE 04:51:21 10° E visible
08 Feb - 06:38:49 10° SW 06:47:38 50° SSE 06:56:32 10° E visible
08 Feb - 08:42:43 10° W 08:51:47 60° S 09:01:02 10° ESE daylight
08 Feb - 10:47:15 10° W 10:55:50 43° SSW 11:04:34 10° SE daylight
08 Feb - 12:53:07 10° W 12:59:03 18° SW 13:04:43 10° S daylight
09 Feb - 04:15:56 10° S 04:22:43 24° SE 04:29:44 10° E visible
09 Feb - 06:17:22 10° SW 06:26:09 49° SSE 06:35:01 10° E visible
09 Feb - 08:21:14 10° W 08:30:17 60° S 08:39:30 10° ESE daylight
09 Feb - 10:25:43 10° W 10:34:21 44° SSW 10:43:07 10° SE daylight
09 Feb - 12:31:27 10° W 12:37:36 19° SW 12:43:32 10° S daylight
